This demonstration page uses our WeatherBlox Daily Observations layout. Learn more.

Left ArrowRight Arrow

Hourly Observations for June 28, 2021

Temp ( °F °C ) Dew Point ( °F °C ) Humidity (%) Winds ( mph kmh ) Pressure ( in mb ) Visibility ( mi km ) Precip ( " mm )
12:15 am 00:15 Clear 62 16.6 60 15.4 93 93 N 6 9 30.02 1017 10 16 N/A
12:55 am 00:55 Mostly Cloudy 62 16.8 60 15.3 91 91 WNW 8 13 30.04 1017 10 16 N/A
1:15 am 01:15 Partly Cloudy 63 17 60 15.5 91 91 NW 6 9 30.02 1017 10 16 N/A
1:35 am 01:35 Mostly Cloudy 63 17.3 61 16 92 92 W 7 11 30.03 1017 10 16 N/A
1:55 am 01:55 Cloudy 64 17.5 60 15.7 89 89 WSW 6 9 30.03 1017 10 16 N/A
2:15 am 02:15 Cloudy with Light Rain 63 17.4 60 15.8 90 90 WSW 7 11 30.03 1017 10 16 N/A
2:35 am 02:35 Cloudy with Nearby Thunderstorms 63 17.1 61 16 93 93 SW 8 13 30.04 1017 7 11 0.03 0.76
2:55 am 02:55 Cloudy with Light Rain 63 17 61 15.9 93 93 SSW 5 7 30.04 1017 10 16 0.07 1.78
3:15 am 03:15 Cloudy with Rain 63 17 61 16.2 95 95 SSE 5 7 30.03 1017 5 8 0.05 1.27
3:35 am 03:35 Cloudy with Light Rain 63 17 61 16.2 95 95 E 5 7 30.03 1017 10 16 0.06 1.52
3:55 am 03:55 Cloudy with Drizzle 62 16.6 60 15.7 94 94 E 6 9 30.02 1017 10 16 0.07 1.78
4:15 am 04:15 Mostly Cloudy 62 16.5 60 15.7 95 95 NE 6 9 30.02 1017 10 16 N/A
4:35 am 04:35 Mostly Cloudy 62 16.5 60 15.6 94 94 N N/A 30.03 1017 10 16 N/A
4:55 am 04:55 Cloudy 62 16.5 60 15.7 95 95 N N/A 30.04 1017 10 16 N/A
5:15 am 05:15 Cloudy 62 16.5 60 15.7 95 95 W 3 6 30.05 1018 10 16 N/A
5:35 am 05:35 Cloudy 61 16.2 60 15.6 96 96 NNW 5 7 30.06 1018 7 11 N/A
5:55 am 05:55 Cloudy 61 16 60 15.5 97 97 NNW 3 6 30.06 1018 7 11 N/A
6:15 am 06:15 Cloudy with Mist and Fog 61 16 60 15.5 97 97 N N/A 30.07 1018 4 6 N/A
6:35 am 06:35 Partly Cloudy with Mist and Fog 59 15.2 58 14.7 97 97 W 3 6 30.07 1018 3 4 N/A
6:55 am 06:55 Sunny with Mist and Fog 59 14.9 58 14.5 97 97 W 5 7 30.08 1019 3 5 N/A
7:15 am 07:15 Sunny with Mist and Fog 59 15.2 59 14.8 97 97 W 3 6 30.07 1018 3 5 N/A
7:35 am 07:35 Sunny with Mist and Fog 61 16.1 60 15.8 98 98 W 5 7 30.07 1018 3 5 N/A
7:55 am 07:55 Sunny 63 17.2 61 16.1 93 93 WNW 5 7 30.07 1018 10 16 N/A
8:15 am 08:15 Sunny 65 18.1 60 15.8 87 87 WNW 5 7 30.06 1018 10 16 N/A
8:35 am 08:35 Sunny 66 19.1 60 15.8 81 81 NW 7 11 30.05 1018 10 16 N/A
8:55 am 08:55 Sunny 67 19.6 61 15.9 79 79 NNW 6 9 30.05 1017 10 16 N/A
9:15 am 09:15 Sunny 69 20.3 60 15.5 74 74 NW 7 11 30.04 1017 10 16 N/A
9:55 am 09:55 Sunny 70 21.3 59 15.1 68 68 WNW 3 6 30.03 1017 10 16 N/A
10:15 am 10:15 Sunny 71 21.9 60 15.7 68 68 W 3 6 30.04 1017 10 16 N/A
10:35 am 10:35 Sunny 73 22.5 60 15.7 66 66 W 3 6 30.02 1017 10 16 N/A
10:55 am 10:55 Sunny 73 22.7 59 15 62 62 W 3 6 30.02 1017 10 16 N/A
11:15 am 11:15 Sunny 74 23.1 60 15.4 62 62 NW 6 9 30.02 1016 10 16 N/A
11:35 am 11:35 Sunny 75 23.8 61 16.1 62 62 NW 7 11 30.01 1016 10 16 N/A
11:55 am 11:55 Sunny 74 23.6 59 15.2 59 59 N N/A 30.01 1016 10 16 N/A
12:15 pm 12:15 Sunny 75 24.1 58 14.3 54 54 NNW 5 7 30.01 1016 10 16 N/A
12:35 pm 12:35 Sunny 76 24.6 58 14.5 53 53 N 3 6 30.00 1016 10 16 N/A
12:55 pm 12:55 Sunny 76 24.6 58 14.2 52 52 NNW 3 6 30.00 1016 10 16 N/A
1:15 pm 13:15 Sunny 77 25.1 58 14.5 52 52 WNW 5 7 30.00 1016 10 16 N/A
1:35 pm 13:35 Sunny 78 25.4 59 15.1 53 53 NW 7 11 30.00 1016 10 16 N/A
1:55 pm 13:55 Sunny 78 25.6 59 14.9 52 52 W 3 6 29.99 1016 10 16 N/A
2:15 pm 14:15 Sunny 79 26 60 15.3 52 52 NNW 6 9 29.98 1015 10 16 N/A
2:35 pm 14:35 Partly Cloudy 80 26.4 59 14.9 49 49 ESE 5 7 29.97 1015 10 16 N/A
2:55 pm 14:55 Partly Cloudy 79 26.1 60 15.6 52 52 NE 6 9 29.97 1015 10 16 N/A
3:15 pm 15:15 Sunny 80 26.5 59 15.2 50 50 ESE 3 6 29.97 1015 10 16 N/A
3:35 pm 15:35 Partly Cloudy 81 27.3 56 13.5 43 43 N N/A 29.95 1014 10 16 N/A
3:55 pm 15:55 Partly Cloudy 81 27.3 57 14.1 44 44 E 6 9 29.94 1014 10 16 N/A
4:15 pm 16:15 Sunny 81 27.1 53 11.4 38 38 N N/A 29.94 1014 10 16 N/A
4:35 pm 16:35 Partly Cloudy with Nearby Thunderstorms 81 27.2 56 13.1 42 42 N N/A 29.95 1014 10 16 N/A
4:55 pm 16:55 Mostly Cloudy 77 24.8 59 15 55 55 NNW 17 28 29.98 1015 10 16 N/A
5:15 pm 17:15 Cloudy 71 21.6 57 13.9 62 62 NNW 20 31 30.01 1016 10 16 N/A
5:35 pm 17:35 Cloudy 72 22.4 56 13.5 57 57 N 17 28 30.00 1016 10 16 N/A
5:55 pm 17:55 Mostly Cloudy 73 23 55 12.6 52 52 N 14 22 30.00 1016 10 16 N/A
6:15 pm 18:15 Mostly Cloudy with Nearby Thunderstorms 72 22 56 13.1 57 57 N 9 15 29.99 1016 10 16 N/A
6:35 pm 18:35 Mostly Cloudy 71 21.8 57 13.8 61 61 N 6 9 30.00 1016 10 16 N/A
6:55 pm 18:55 Partly Cloudy 72 22.4 57 13.8 58 58 NNE 3 6 29.99 1016 10 16 N/A
7:15 pm 19:15 Sunny 74 23.2 58 14.4 58 58 ENE 7 11 29.99 1016 10 16 N/A
7:35 pm 19:35 Sunny 73 23 60 15.5 63 63 E 6 9 30.02 1016 10 16 N/A
7:55 pm 19:55 Sunny 72 22 59 14.8 64 64 E 9 15 30.02 1017 10 16 N/A
8:15 pm 20:15 Partly Cloudy 70 21.3 60 15.4 69 69 ENE 6 9 30.04 1017 10 16 N/A
8:35 pm 20:35 Mostly Cloudy 69 20.5 60 15.3 72 72 N N/A 30.06 1018 10 16 N/A
8:55 pm 20:55 Cloudy 69 20.5 59 14.9 70 70 NW 9 15 30.08 1019 10 16 N/A
9:15 pm 21:15 Mostly Cloudy 67 19.7 60 15.4 76 76 WNW 9 15 30.08 1019 10 16 N/A
9:35 pm 21:35 Mostly Cloudy 66 19 60 15.7 81 81 NNW 9 15 30.09 1019 10 16 N/A
9:55 pm 21:55 Partly Cloudy 66 18.7 59 14.9 79 79 N 8 13 30.10 1019 10 16 N/A
10:15 pm 22:15 Clear 65 18.3 59 14.8 80 80 N 7 11 30.12 1020 10 16 N/A
10:35 pm 22:35 Clear 64 18 59 15 83 83 N 8 13 30.11 1020 10 16 N/A
10:55 pm 22:55 Clear 64 17.8 58 14.7 82 82 N 6 9 30.11 1020 10 16 N/A
11:15 pm 23:15 Clear 63 17.3 59 15 86 86 N 6 9 30.12 1020 10 16 N/A
11:35 pm 23:35 Clear 63 17.1 59 15 88 88 N N/A 30.12 1020 10 16 N/A
11:55 pm 23:55 Partly Cloudy 63 17.1 59 15.2 89 89 SSW 3 6 30.12 1020 10 16 N/A

Powered by AerisWeather